Glendive, MT

10:21 AM MDT on October 22, 2017 (GMT -0600)
Dawson Community

Weather History for KGDV - December, 2013

Change the Weather History Date:

Monday, December 23, 2013

  Actual Average Record
Temperature  
Mean Temperature -1 °F -  
Max Temperature 23 °F 25 °F 44 °F (1999)
Min Temperature -25 °F 7 °F -25 °F (2013)
Degree Days  
Heating Degree Days 66    
Moisture  
Dew Point -2 °F    
Average Humidity 79    
Maximum Humidity 100    
Minimum Humidity 43    
Precipitation  
Precipitation 0.00 in - - ()
Sea Level Pressure  
Sea Level Pressure 30.15 in    
Wind  
Wind Speed 4 mph (SSW)    
Max Wind Speed 17 mph    
Max Gust Speed -    
Visibility 9 miles    
Events      
Averages and records for this station are not official NWS values.
T = Trace of Precipitation, MM = Missing Value Source: NWS Daily Summary

Daily Weather History Graph

Daily Weather History Graph

Search for Another Location

Airport or City:

Trip Planner

Search our weather history database for the weather conditions in past years. The results will help you decide how hot, cold, wet, or windy it might be!

Date:

Astronomy

Dec. 23, 2013 Rise Set
Actual Time 7:43 AM MST 4:13 PM MST
Civil Twilight 7:08 AM MST 4:49 PM MST
Nautical Twilight 6:29 AM MST 5:27 PM MST
Astronomical Twilight 5:51 AM MST 6:05 PM MST
Moon 10:49 PM MST (12/23) 10:48 AM MST (12/23)
Length of Visible Light 9h 40m
Length of Day
8h 29m
Waning Gibbous, 67% of the Moon is Illuminated
Dec 23
Waning Gibbous
Dec 25
Last Quarter
Jan 1
New
Jan 7
First Quarter
Jan 15
Full

Hourly Weather History & Observations

Time (MST) Temp. Windchill Dew Point Humidity Pressure Visibility Wind Dir Wind Speed Gust Speed Precip Events Conditions
12:35 AM -20.2 °F -30.9 °F - N/A% 30.41 in 10.0 mi NNW 3.5 mph - N/A   Clear
1:15 AM -22.0 °F - - N/A% 30.40 in 10.0 mi Calm Calm - N/A   Clear
1:35 AM -20.2 °F - -22.0 °F 91% 30.40 in 10.0 mi Calm Calm - N/A   Clear
1:55 AM -22.0 °F - -23.8 °F 91% 30.40 in 9.0 mi Calm Calm - N/A   Clear
2:15 AM -22.0 °F - - N/A% 30.40 in 9.0 mi Calm Calm - N/A   Clear
2:35 AM -18.4 °F - - N/A% 30.40 in 10.0 mi Calm Calm - N/A   Clear
2:55 AM -23.8 °F - - N/A% 30.39 in 10.0 mi Calm Calm - N/A   Clear
3:15 AM -25.6 °F - - N/A% 30.39 in 8.0 mi Calm Calm - N/A   Clear
3:35 AM -25.6 °F - - N/A% 30.38 in 7.0 mi Calm Calm - N/A   Clear
3:55 AM -25.6 °F - - N/A% 30.38 in 4.0 mi Calm Calm - N/A   Clear
4:15 AM -23.8 °F -35.0 °F - N/A% 30.37 in 10.0 mi South 3.5 mph - N/A   Clear
4:35 AM -25.6 °F -39.8 °F - N/A% 30.37 in 10.0 mi South 4.6 mph - N/A   Clear
4:55 AM -25.6 °F -39.8 °F - N/A% 30.37 in 10.0 mi SSW 4.6 mph - N/A   Clear
5:15 AM -25.6 °F -37.1 °F - N/A% 30.36 in 10.0 mi SSW 3.5 mph - N/A   Clear
5:35 AM -25.6 °F - - N/A% 30.36 in 10.0 mi Calm Calm - N/A   Clear
5:55 AM -23.8 °F -37.7 °F - N/A% 30.36 in 10.0 mi South 4.6 mph - N/A   Partly Cloudy
6:15 AM -23.8 °F -35.0 °F - N/A% 30.35 in 5.0 mi SSW 3.5 mph - N/A   Mostly Cloudy
6:35 AM -23.8 °F -37.7 °F - N/A% 30.34 in 3.0 mi South 4.6 mph - N/A   Overcast
6:55 AM -22.0 °F - -23.8 °F 91% 30.33 in 1.2 mi Calm Calm - N/A   Overcast
7:15 AM -22.0 °F -35.6 °F - N/A% 30.33 in 1.8 mi SW 4.6 mph - N/A   Overcast
7:35 AM -22.0 °F -33.0 °F - N/A% 30.33 in 0.8 mi SW 3.5 mph - N/A   Overcast
7:55 AM -23.8 °F -37.7 °F -25.6 °F 91% 30.33 in 1.5 mi WSW 4.6 mph - N/A   Overcast
8:15 AM -23.8 °F -35.0 °F - N/A% 30.31 in 3.0 mi WSW 3.5 mph - N/A   Partly Cloudy
8:35 AM -23.8 °F -37.7 °F - N/A% 30.31 in 5.0 mi WSW 4.6 mph - N/A   Clear
8:55 AM -22.0 °F -33.0 °F - N/A% 30.30 in 10.0 mi WSW 3.5 mph - N/A   Clear
9:15 AM -20.2 °F -33.5 °F - N/A% 30.29 in 10.0 mi SW 4.6 mph - N/A   Clear
9:35 AM -18.4 °F -31.4 °F - N/A% 30.29 in 10.0 mi WSW 4.6 mph - N/A   Clear
9:55 AM -16.6 °F -26.8 °F - N/A% 30.29 in 10.0 mi SW 3.5 mph - N/A   Clear
10:15 AM -16.6 °F - - N/A% 30.28 in 10.0 mi Calm Calm - N/A   Clear
10:35 AM -14.8 °F - -25.6 °F 58% 30.27 in 10.0 mi Calm Calm - N/A   Clear
10:55 AM -11.2 °F - -22.0 °F 59% 30.25 in 10.0 mi Calm Calm - N/A   Clear
11:15 AM -9.4 °F - -20.2 °F 59% 30.24 in 10.0 mi Calm Calm - N/A   Clear
11:35 AM -9.4 °F - -16.6 °F 71% 30.22 in 10.0 mi Calm Calm - N/A   Clear
11:55 AM -9.4 °F - -22.0 °F 54% 30.20 in 10.0 mi Calm Calm - N/A   Clear
12:15 PM -7.6 °F - - N/A% 30.20 in 10.0 mi Calm Calm - N/A   Clear
12:35 PM -7.6 °F - - N/A% 30.17 in 10.0 mi Calm Calm - N/A   Clear
12:55 PM -7.6 °F - -16.6 °F 65% 30.15 in 10.0 mi Calm Calm - N/A   Clear
1:15 PM -5.8 °F - -11.2 °F 77% 30.13 in 10.0 mi Calm Calm - N/A   Clear
1:35 PM -5.8 °F - -9.4 °F 84% 30.12 in 10.0 mi Calm Calm - N/A   Clear
1:55 PM -2.2 °F -10.4 °F -9.4 °F 71% 30.11 in 10.0 mi West 3.5 mph - N/A   Clear
2:15 PM -2.2 °F - -5.8 °F 85% 30.09 in 10.0 mi Calm Calm - N/A   Clear
2:35 PM -0.4 °F -8.3 °F -0.4 °F 100% 30.08 in 10.0 mi SSW 3.5 mph - N/A   Partly Cloudy
2:55 PM -0.4 °F - -5.8 °F 78% 30.07 in 10.0 mi Calm Calm - N/A   Mostly Cloudy
3:15 PM 1.4 °F -9.9 °F -4.0 °F 78% 30.06 in 10.0 mi SSW 5.8 mph - N/A   Mostly Cloudy
3:35 PM 1.4 °F -9.9 °F 1.4 °F 100% 30.05 in 10.0 mi SSW 5.8 mph - N/A   Mostly Cloudy
3:55 PM 3.2 °F -10.3 °F -2.2 °F 78% 30.03 in 10.0 mi South 8.1 mph - N/A   Mostly Cloudy
4:15 PM 3.2 °F -7.8 °F -5.8 °F 66% 30.04 in 10.0 mi SSW 5.8 mph - N/A   Partly Cloudy
4:35 PM 3.2 °F -9.1 °F -14.8 °F 43% 30.02 in 10.0 mi SSW 6.9 mph - N/A   Clear
4:55 PM 5.0 °F -9.1 °F 5.0 °F 100% 30.00 in 10.0 mi South 9.2 mph - N/A   Partly Cloudy
5:15 PM 6.8 °F -7.8 °F -2.2 °F 67% 29.97 in 10.0 mi South 10.4 mph - N/A   Partly Cloudy
5:35 PM 6.8 °F -9.3 °F -0.4 °F 72% 29.96 in 10.0 mi South 12.7 mph - N/A   Mostly Cloudy
5:55 PM 8.6 °F -7.7 °F 8.6 °F 100% 29.94 in 10.0 mi SSW 13.8 mph - N/A   Overcast
6:15 PM 10.4 °F -3.3 °F 8.6 °F 92% 29.95 in 10.0 mi SSW 10.4 mph - N/A   Overcast
6:35 PM 12.2 °F -1.0 °F 8.6 °F 85% 29.93 in 10.0 mi SSW 10.4 mph - N/A   Overcast
6:55 PM 12.2 °F -3.1 °F 8.6 °F 85% 29.92 in 10.0 mi SSW 13.8 mph - N/A   Overcast
7:15 PM 14.0 °F 0.5 °F 10.4 °F 86% 29.91 in 10.0 mi South 11.5 mph - N/A   Overcast
7:35 PM 15.8 °F 1.4 °F 12.2 °F 86% 29.90 in 10.0 mi SSW 13.8 mph - N/A   Overcast
8:15 PM 15.8 °F 2.7 °F 12.2 °F 86% 29.88 in 10.0 mi SSW 11.5 mph - N/A   Overcast
8:35 PM 17.6 °F 3.2 °F 12.2 °F 79% 29.87 in 10.0 mi SSW 15.0 mph - N/A   Overcast
8:55 PM 15.8 °F -0.2 °F 10.4 °F 79% 29.87 in 10.0 mi SSW 17.3 mph - N/A   Scattered Clouds
9:15 PM 15.8 °F -0.2 °F 10.4 °F 79% 29.84 in 10.0 mi SSW 17.3 mph - N/A   Clear
9:35 PM 15.8 °F 0.3 °F 10.4 °F 79% 29.84 in 10.0 mi SW 16.1 mph - N/A   Clear
9:55 PM 17.6 °F 5.0 °F 12.2 °F 79% 29.84 in 10.0 mi SSW 11.5 mph - N/A   Scattered Clouds
10:15 PM 17.6 °F 2.7 °F 12.2 °F 79% 29.84 in 10.0 mi SW 16.1 mph - N/A   Overcast
10:35 PM 19.4 °F 6.0 °F 12.2 °F 74% 29.84 in 10.0 mi SW 13.8 mph - N/A   Mostly Cloudy
10:55 PM 21.2 °F 10.1 °F 15.8 °F 80% 29.85 in 10.0 mi SW 10.4 mph - N/A   Overcast
11:15 PM 21.2 °F 12.6 °F 17.6 °F 86% 29.84 in 10.0 mi SSW 6.9 mph - N/A   Overcast
11:35 PM 23.0 °F 13.1 °F 17.6 °F 80% 29.84 in 10.0 mi South 9.2 mph - N/A   Overcast
11:55 PM 21.2 °F 11.7 °F 19.4 °F 93% 29.84 in 10.0 mi SSE 8.1 mph - N/A   Overcast